RH
88 89 88 87 87 88 89 90 91 92 92 92 92 93 93 94 95 96 96 96 96 97 97 96 95 95 94 94 94 94 95 97 98 98 95 92 90 88 86 85 83 84 84 83 85 88 90 92 93 94 95 96 96 96 95 93 90 86 82 79 76 74 74 74 70 66 67 69 71 74 75 76 76 76 76 77 77 77 75 73 73 72 72 72 72
87 86 85 84 84 84 84 84 84 85 86 87 89 90 91 91 92 93 94 95 96 97 97 97 97 98 98 98 97 95 94 95 97 97 96 94 92 91 89 88 87 87 89 91 94 95 94 95 95 96 96 95 95 96 96 96 96 94 93 91 89 85 83 82 79 74 73 75 78 79 80 82 82 82 83 82 83 84 83 82 82 81 81 81 81
80 80 80 80 81 81 81 80 80 80 80 81 83 84 85 85 86 86 88 89 91 92 94 96 97 98 98 98 98 98 96 96 97 98 98 98 97 95 94 93 92 93 95 96 98 98 97 96 96 97 97 96 95 97 97 98 99 99 98 98 97 95 94 93 88 83 79 80 82 83 84 85 85 86 86 86 85 85 84 85 84 84 84 84 84
68 69 70 70 70 71 71 72 73 73 74 75 77 79 80 81 81 82 83 84 85 86 87 89 92 94 96 97 97 98 98 97 97 97 97 98 98 98 98 97 96 97 98 98 99 98 98 98 98 99 99 98 97 97 97 97 97 98 99 100 99 99 100 98 94 90 86 84 85 88 88 87 87 88 88 88 87 86 86 85 85 85 85 85 85
53 54 56 57 57 58 58 59 59 60 61 62 64 67 70 72 75 77 79 80 82 83 84 85 86 88 89 92 93 94 95 95 95 96 96 96 96 97 97 98 98 98 98 99 99 99 99 98 98 99 99 98 98 97 97 98 98 99 100 100 100 100 100 99 98 97 94 91 91 93 93 92 92 93 92 91 91 90 88 87 86 86 85 85 85
43 44 45 47 48 51 53 54 54 54 54 54 54 55 56 58 60 64 67 70 73 76 78 80 82 83 84 85 86 87 88 89 89 90 90 90 91 91 91 92 93 93 94 95 96 96 97 97 98 98 98 98 98 99 99 99 99 99 99 99 100 99 98 98 98 98 96 94 93 94 95 96 96 95 96 96 95 92 89 88 86 85 84 85 85
34 34 35 36 37 40 43 45 47 49 50 52 53 54 53 52 52 52 53 55 58 61 64 67 71 74 76 77 78 79 80 80 81 82 82 82 82 82 82 82 83 84 85 86 87 88 89 89 89 90 90 90 91 92 93 93 93 94 95 96 96 94 94 94 95 94 93 93 93 93 94 94 93 93 95 95 93 90 89 87 84 83 83 83 83
27 28 28 29 29 30 31 34 36 38 40 43 44 47 49 50 50 50 50 50 51 51 52 54 56 59 62 66 68 70 72 73 73 73 73 73 73 73 74 74 73 74 75 77 79 80 81 82 82 82 81 82 82 83 83 83 83 84 86 88 88 87 88 88 89 89 89 89 89 89 89 88 87 87 88 88 87 86 87 85 82 81 81 80 78
27 28 27 27 27 28 28 29 30 31 32 33 34 36 38 40 42 45 46 48 48 49 49 49 49 50 50 52 54 56 59 63 65 66 66 67 67 66 66 66 66 66 66 68 70 73 75 77 77 78 78 79 79 79 79 78 77 77 79 80 81 81 82 83 83 84 84 84 83 83 83 82 81 82 82 81 81 82 82 80 78 77 76 74 72
26 27 28 29 30 31 31 31 31 30 30 30 30 30 31 33 35 37 38 40 42 43 45 46 47 47 47 46 46 46 46 47 49 51 53 56 59 61 62 62 62 62 61 61 62 64 67 68 70 72 73 74 75 77 77 77 77 76 77 78 78 77 77 78 78 78 78 77 77 78 77 76 77 77 76 76 77 77 76 76 75 74 72 69 67
24 26 26 28 29 30 31 32 34 34 34 32 31 30 30 30 31 33 35 37 38 39 41 41 42 43 44 45 45 46 45 44 42 41 40 41 42 45 48 52 55 56 57 57 57 58 60 61 63 65 67 69 70 72 73 73 74 75 76 77 77 77 76 76 75 74 73 72 73 73 73 73 74 74 73 74 75 75 75 75 74 75 73 70 68
24 25 25 26 26 27 28 29 30 31 33 34 34 34 33 33 34 35 36 37 39 40 41 41 42 43 44 44 45 46 47 47 46 45 43 41 40 38 38 38 41 44 48 51 53 54 55 57 59 62 63 65 66 67 68 69 70 71 73 74 76 77 78 77 76 75 74 73 72 72 73 74 74 74 74 75 75 75 75 75 75 75 74 71 70
24 25 25 26 26 27 27 27 27 27 28 29 31 34 36 38 40 41 41 42 43 43 43 43 44 46 47 47 48 48 48 48 48 48 47 47 46 44 42 40 38 37 38 42 46 49 51 53 56 59 62 64 64 64 65 66 67 68 68 70 74 77 78 78 77 77 75 74 72 73 75 75 74 74 75 75 75 75 76 76 75 74 73 72 71
24 25 26 27 28 28 28 27 27 27 28 29 31 34 37 40 42 43 44 45 46 46 45 46 47 48 48 48 48 48 47 47 47 47 48 48 49 48 48 48 48 45 42 39 40 42 44 47 50 53 58 62 64 65 65 66 67 67 67 69 72 75 77 76 76 75 74 73 73 74 75 75 74 74 75 75 75 76 76 76 75 74 74 74 73
23 26 28 29 30 30 30 30 30 31 33 35 37 38 39 40 41 42 43 44 45 46 46 47 47 48 47 47 47 46 45 44 45 46 47 48 50 52 52 53 55 56 54 50 46 42 41 41 43 47 51 55 59 62 64 65 66 67 68 70 73 75 76 76 76 76 75 74 74 74 75 76 75 75 76 76 76 77 77 76 77 77 76 75 75
26 29 30 31 32 31 31 32 33 36 38 40 40 41 41 42 42 43 43 44 45 46 47 47 48 48 47 47 47 47 45 45 47 49 51 52 54 56 58 59 60 62 63 62 59 55 50 45 43 43 45 48 52 55 58 61 63 65 68 72 74 75 77 78 77 76 76 76 75 75 76 76 76 76 77 77 78 79 78 78 79 78 77 78 80
29 31 32 33 32 31 31 31 33 37 40 42 43 45 48 49 49 50 49 48 48 48 50 52 53 54 54 54 55 54 52 51 52 53 55 56 57 59 61 63 64 66 68 67 66 66 65 61 56 52 49 49 50 51 52 54 57 60 65 70 72 75 79 81 80 78 78 77 77 77 77 78 78 79 79 79 80 80 79 79 81 81 81 82 84
29 32 33 33 32 31 31 32 34 36 39 42 44 47 51 54 55 55 55 55 55 55 56 58 59 59 59 58 58 59 59 59 59 59 60 61 61 62 63 65 68 71 73 74 74 75 76 75 73 70 66 63 59 57 55 54 54 57 61 66 70 74 78 80 80 80 80 80 80 80 80 81 81 82 82 82 82 82 82 82 84 84 84 85 86
29 30 31 32 32 33 34 36 37 38 38 39 41 43 47 53 58 61 64 66 67 67 68 67 66 64 64 63 63 65 66 66 67 68 68 69 69 69 69 70 71 74 77 79 82 85 86 86 86 85 84 83 80 76 72 67 63 62 62 64 68 73 76 77 77 78 80 81 83 83 82 83 83 83 83 83 84 84 84 84 85 86 86 88 88
28 29 29 30 31 31 33 36 37 38 37 37 38 39 42 47 53 60 65 69 71 73 74 75 74 73 73 72 71 71 71 71 72 73 73 72 72 72 71 71 71 72 74 75 78 81 83 84 86 87 88 90 91 92 92 89 86 83 79 75 73 72 72 72 74 75 77 78 81 83 84 83 83 83 83 84 84 84 84 85 86 87 88 89 89
27 28 28 29 28 29 29 30 31 32 32 32 33 34 35 38 41 46 50 54 58 62 66 70 73 75 77 77 75 72 69 67 67 69 70 70 70 70 71 71 71 72 74 76 77 78 79 79 79 80 80 82 84 88 91 95 97 98 97 95 91 84 78 74 72 72 72 73 75 79 82 83 82 83 83 83 83 84 85 86 87 88 89 90 91
26 26 27 28 27 27 26 26 26 27 27 28 28 29 29 30 32 34 36 39 42 45 50 55 60 64 68 71 74 74 72 70 67 66 66 67 67 68 69 71 72 73 75 77 78 79 80 80 79 79 78 79 80 82 84 87 91 94 97 99 100 99 94 89 83 78 74 71 70 72 76 80 82 83 84 83 83 83 85 86 88 90 92 94 96
24 26 27 27 27 27 27 26 26 26 26 26 27 27 27 27 28 28 29 30 31 33 36 41 45 50 55 59 63 67 71 73 73 72 70 68 67 67 69 71 72 73 75 77 78 80 81 81 81 81 81 81 81 82 84 86 88 90 93 94 96 98 100 100 97 93 87 81 77 75 77 81 84 86 86 84 83 85 88 90 93 95 97 98 99
23 25 27 27 27 28 28 27 27 26 27 27 27 27 27 27 27 27 27 27 27 27 28 30 33 37 42 46 51 55 60 66 71 74 76 76 74 71 70 71 73 74 75 77 79 82 83 83 83 83 83 83 83 84 86 89 91 92 94 95 94 95 98 100 100 100 97 92 87 83 82 85 87 88 88 87 88 91 94 96 98 99 99 99 98
20 24 25 26 28 28 28 29 28 28 28 28 28 28 28 28 28 27 27 27 26 26 26 26 27 28 31 35 40 45 50 55 61 67 73 79 82 80 77 75 74 75 75 76 79 83 84 84 83 83 83 84 85 87 89 91 92 94 96 99 98 95 96 97 99 100 100 98 93 88 85 86 88 88 90 92 94 97 99 100 100 99 98 96 93
18 21 23 25 27 28 28 30 30 31 30 30 29 28 28 28 28 28 28 28 27 27 26 26 26 26 27 29 32 36 41 46 52 57 64 73 81 85 85 82 78 76 75 75 77 82 85 85 85 84 83 84 87 90 91 92 94 96 98 100 101 100 97 95 96 99 100 100 99 95 91 91 92 93 95 97 99 100 100 100 98 96 93 91 89
16 19 21 23 25 25 26 28 30 32 32 31 30 30 29 29 29 29 29 28 28 28 27 27 27 27 27 28 29 31 34 39 44 50 55 62 72 82 86 86 83 79 76 73 75 80 85 88 89 88 87 87 89 92 92 93 96 99 100 100 100 101 99 96 95 98 100 100 100 99 98 98 99 99 100 100 100 100 99 97 95 92 90 89 87
15 17 19 21 23 24 25 27 29 30 31 31 31 30 30 30 30 29 29 29 28 28 28 28 28 28 28 29 29 29 31 34 39 45 51 55 63 74 83 86 84 81 78 76 75 80 85 89 91 91 90 90 91 93 93 94 97 99 100 100 100 101 100 97 96 98 100 100 100 100 100 100 100 100 100 100 100 98 96 93 91 89 88 87 83
14 15 17 18 21 22 24 26 28 28 29 30 30 31 31 31 30 30 29 29 29 29 29 29 28 28 28 29 30 30 30 31 34 41 48 53 58 68 80 86 85 82 81 79 78 81 85 89 91 93 93 93 94 95 95 95 97 99 99 99 100 99 99 97 98 99 100 100 100 100 100 100 100 101 100 98 96 94 92 90 89 87 84 78 71
15 15 15 16 17 19 21 24 25 25 25 26 27 29 30 31 31 30 29 29 29 29 29 29 28 28 27 28 29 30 31 31 32 36 45 52 55 62 77 88 87 84 82 82 83 85 87 88 91 93 94 94 95 95 96 97 98 99 99 99 99 99 99 99 100 100 100 100 100 100 100 100 100 99 97 95 93 91 90 88 84 78 71 63 55
16 16 16 15 16 17 19 21 22 22 23 23 24 25 26 27 30 31 30 29 29 30 30 29 29 28 27 27 28 30 30 31 31 34 43 52 55 59 73 86 89 85 82 85 88 89 88 88 90 92 94 95 95 95 96 97 99 100 100 100 100 100 100 100 100 100 100 101 100 100 99 99 97 95 94 92 91 89 86 80 71 62 54 49 44
17 16 16 16 17 18 19 19 20 20 21 23 24 23 22 22 24 27 29 31 31 30 30 30 29 28 27 27 29 30 31 31 32 35 43 52 56 59 70 84 91 87 84 87 90 91 91 90 89 90 92 94 95 95 96 96 98 99 100 100 100 100 101 100 100 100 100 100 99 98 97 96 95 93 92 90 87 81 74 65 55 49 45 42 41
18 17 17 18 19 19 19 19 20 20 21 22 23 23 23 23 22 23 26 29 31 31 31 30 30 29 28 27 29 30 31 31 32 37 45 52 56 58 67 82 91 90 87 90 92 91 92 92 89 88 90 92 93 94 95 97 98 99 100 100 101 100 100 100 100 100 99 99 98 96 95 94 93 91 88 83 76 67 57 50 45 43 41 41 40
19 19 19 19 20 20 20 20 21 22 22 23 22 22 23 25 26 26 27 28 30 31 31 30 30 29 28 27 28 29 31 32 34 40 47 54 57 59 66 80 90 92 91 94 94 92 92 92 90 88 88 90 92 92 93 94 96 97 98 99 99 99 99 100 100 99 98 97 96 95 94 92 89 84 77 68 59 51 45 43 42 42 41 40 37
21 21 21 21 21 21 21 22 22 23 22 23 22 22 23 24 26 28 30 30 31 32 32 31 31 30 28 27 27 29 32 35 38 43 50 55 57 59 66 78 90 95 95 96 96 94 92 92 92 90 88 88 89 91 93 94 95 96 98 99 100 101 100 99 98 97 96 95 94 92 89 84 78 70 61 53 46 43 42 42 42 42 40 36 30
22 23 23 23 22 22 22 22 23 23 23 23 23 23 23 24 26 28 30 31 32 33 32 32 31 30 29 27 27 28 32 37 42 47 51 54 57 60 67 78 90 98 98 96 95 94 92 92 93 93 90 90 91 93 96 97 97 98 99 99 99 98 97 96 95 95 94 92 89 84 78 71 63 55 48 44 43 42 43 43 42 40 35 30 25
25 24 24 24 23 23 23 23 24 24 24 24 23 23 23 24 26 27 29 31 32 33 33 32 31 30 29 28 28 29 32 38 44 48 51 53 58 63 70 79 90 98 99 97 96 95 95 95 95 96 96 95 96 97 98 97 97 97 96 96 95 94 94 94 93 91 88 83 77 71 63 56 50 46 43 43 43 44 43 42 39 34 29 25 24
28 25 25 25 25 24 24 24 25 25 24 24 24 24 24 25 26 27 29 30 32 33 34 33 32 31 30 29 29 31 35 39 43 48 51 54 59 65 71 81 92 98 98 97 98 98 98 98 97 98 98 97 96 96 96 96 96 96 95 94 94 93 92 89 86 81 76 70 63 57 51 46 44 44 44 44 44 44 42 38 33 27 25 24 25
31 28 27 27 26 26 26 25 25 25 25 25 25 24 24 25 26 28 29 29 31 33 34 34 33 32 31 29 30 33 38 41 43 48 52 55 60 67 73 82 94 98 96 95 98 99 99 99 97 97 97 96 95 95 95 94 94 94 94 93 92 89 85 81 76 70 64 58 52 48 44 44 45 46 46 45 44 42 37 31 26 25 25 25 25
35 31 29 29 28 28 28 27 27 26 26 26 26 25 25 26 27 28 29 30 31 33 34 34 34 33 31 30 30 34 41 44 45 48 52 55 61 68 74 84 95 98 95 94 96 97 97 97 96 96 97 96 95 95 94 92 91 91 91 89 86 81 77 71 66 60 54 49 46 45 45 46 47 48 47 46 42 36 30 25 24 25 25 25 25
39 35 32 32 31 31 30 29 29 28 28 28 27 26 26 27 27 29 30 31 31 32 33 33 34 33 32 30 29 33 42 47 47 48 51 56 62 69 75 85 95 98 95 94 95 95 95 95 95 97 98 97 96 95 93 91 89 87 85 82 77 72 68 62 56 51 48 46 45 46 47 49 50 49 46 41 35 29 26 25 25 25 25 25 27
42 38 36 35 35 34 33 32 31 31 30 30 29 28 28 28 27 28 30 31 32 32 32 32 33 33 33 30 28 31 39 47 50 50 51 56 64 69 75 84 94 98 96 96 96 95 95 94 94 95 96 96 96 95 91 87 85 82 78 74 68 63 58 53 49 46 46 46 47 48 50 51 50 46 40 33 29 27 26 25 25 25 25 27 30
46 42 40 40 39 39 37 36 35 34 33 32 31 30 29 28 28 29 30 31 32 33 32 32 32 32 32 31 28 28 34 44 51 52 51 55 64 70 75 83 93 99 98 98 98 97 96 96 96 96 96 96 94 91 86 82 80 76 71 66 60 55 51 48 46 47 47 48 50 51 52 50 45 38 32 29 28 27 26 25 25 25 27 29 33
49 47 45 44 44 43 42 40 39 38 36 35 33 32 30 29 28 28 29 29 30 32 32 31 31 32 32 31 29 28 30 37 47 53 53 54 62 71 75 81 92 100 100 99 99 99 98 98 98 98 97 96 94 89 84 80 77 72 66 60 54 49 47 46 47 48 49 50 51 51 47 42 36 32 30 30 29 28 26 26 26 27 29 33 35
52 50 49 48 48 48 46 45 44 42 40 38 36 34 32 30 29 29 28 28 29 30 31 30 31 32 31 30 30 30 30 32 40 50 55 55 60 69 75 81 90 98 101 100 100 99 98 99 99 99 97 96 93 88 83 79 75 70 62 55 50 47 46 47 48 49 50 49 47 44 40 36 34 33 32 31 30 29 28 27 27 29 32 35 36
55 53 52 51 51 52 51 50 49 46 44 42 39 37 34 32 29 29 29 28 28 29 29 29 30 31 31 30 30 31 32 31 34 42 52 57 60 65 72 79 88 96 100 101 100 98 97 97 98 97 96 95 93 89 83 79 74 67 58 52 49 48 48 49 49 48 46 43 40 39 38 37 36 35 33 32 31 30 29 29 30 32 34 36 37
56 56 55 54 54 55 55 54 53 51 48 46 43 40 37 34 31 29 29 28 29 28 27 27 29 30 29 30 31 31 33 33 32 34 43 54 60 63 68 74 83 92 98 100 99 97 95 95 94 94 93 92 91 89 84 79 72 64 56 50 49 49 50 50 47 42 39 37 38 40 40 40 38 37 36 35 33 32 31 31 32 34 36 37 37
57 57 56 56 56 57 57 57 56 55 52 50 48 44 41 36 32 30 29 28 29 28 26 26 27 27 27 29 31 32 33 35 35 32 34 43 54 61 66 70 77 85 93 98 99 98 95 93 91 90 89 89 88 86 83 79 72 63 55 51 51 51 51 47 41 37 36 37 39 41 42 41 41 41 39 37 36 35 34 34 36 36 37 37 36
57 57 57 57 57 58 59 58 58 58 57 54 52 48 44 39 34 31 29 29 29 28 26 26 26 25 24 26 29 32 33 35 36 35 34 35 43 54 62 67 71 77 85 92 98 99 97 94 91 87 84 82 82 82 80 76 70 62 54 52 52 51 47 41 37 36 38 39 40 41 42 43 43 43 42 41 40 38 38 38 39 39 38 36 35
56 57 57 58 58 59 59 59 59 59 59 58 55 52 48 42 36 32 30 29 29 28 27 27 26 24 23 24 26 29 33 35 36 37 37 36 37 43 52 62 68 71 76 84 92 97 98 97 94 90 84 79 76 76 75 73 67 60 53 49 48 45 40 37 36 37 39 41 41 41 42 43 43 43 43 43 42 42 42 43 43 42 40 37 35
56 57 58 59 60 60 60 60 59 60 60 60 59 56 52 46 39 33 31 30 29 28 28 28 26 24 23 24 25 27 30 34 36 37 39 40 39 38 41 50 59 66 71 77 84 91 97 98 97 94 90 84 77 73 70 68 65 59 54 50 48 46 43 41 41 42 43 43 42 41 41 42 43 43 44 44 44 44 46 47 47 46 43 40 37